Time,TemperatureF,DewpointF,PressureIn,WindDirection,WindDirectionDegrees,WindSpeedMPH,WindSpeedGustMPH,Humidity,HourlyPrecipIn,Conditions,Clouds,dailyrainin,SoftwareType,DateUTC
2015-03-04 08:22:00,13.0,9.0,30.13,WNW,286,9.0,15.0,83,0.00,,,0.03,,2015-03-04 14:22:00,
2015-03-04 08:42:00,13.0,9.0,30.13,NW,315,8.0,15.0,83,0.00,,,0.03,,2015-03-04 14:42:00,
2015-03-04 08:52:00,13.0,9.0,30.14,NW,322,8.0,15.0,83,0.00,,,0.03,,2015-03-04 14:52:00,
2015-03-04 09:12:00,13.0,9.0,30.15,NNW,333,8.0,18.0,82,0.00,,,0.03,,2015-03-04 15:12:00,
2015-03-04 09:22:00,14.0,10.0,30.16,WNW,288,9.0,17.0,82,0.00,,,0.03,,2015-03-04 15:22:00,
2015-03-04 09:44:00,14.0,9.0,30.17,NNW,327,10.0,17.0,80,0.00,,,0.03,,2015-03-04 15:44:00,
2015-03-04 09:53:00,14.0,9.0,30.16,WNW,300,9.0,15.0,80,0.00,,,0.03,,2015-03-04 15:53:00,
2015-03-04 10:13:00,14.0,9.0,30.19,NW,313,8.0,15.0,81,0.00,,,0.03,,2015-03-04 16:13:00,
2015-03-04 10:23:00,14.0,9.0,30.19,NW,317,8.0,14.0,80,0.00,,,0.03,,2015-03-04 16:23:00,
2015-03-04 10:44:00,15.0,10.0,30.20,NW,316,9.0,16.0,79,0.00,,,0.03,,2015-03-04 16:44:00,
2015-03-04 10:53:00,15.0,9.0,30.21,NW,304,9.0,16.0,78,0.00,,,0.03,,2015-03-04 16:53:00,
2015-03-04 11:13:00,15.0,9.0,30.21,WNW,302,10.0,18.0,77,0.00,,,0.03,,2015-03-04 17:13:00,
2015-03-04 11:32:00,15.0,9.0,30.21,NW,314,9.0,16.0,77,0.00,,,0.03,,2015-03-04 17:32:00,
2015-03-04 11:52:00,15.0,9.0,30.22,NW,315,9.0,16.0,76,0.00,,,0.02,,2015-03-04 17:52:00,
2015-03-04 12:12:00,16.0,9.0,30.22,NW,313,9.0,14.0,75,0.00,,,0.02,,2015-03-04 18:12:00,
2015-03-04 12:23:00,16.0,9.0,30.22,NNW,328,10.0,16.0,73,0.00,,,0.02,,2015-03-04 18:23:00,
2015-03-04 12:43:00,16.0,9.0,30.23,NW,310,9.0,18.0,72,0.00,,,0.01,,2015-03-04 18:43:00,
2015-03-04 12:52:00,16.0,9.0,30.24,NW,313,10.0,17.0,73,0.00,,,0.01,,2015-03-04 18:52:00,
2015-03-04 13:12:00,17.0,10.0,30.24,NNW,340,7.0,17.0,74,0.00,,,0.01,,2015-03-04 19:12:00,
2015-03-04 13:23:00,17.0,10.0,30.23,NW,315,7.0,14.0,73,0.00,,,0.01,,2015-03-04 19:23:00,
2015-03-04 13:43:00,17.0,10.0,30.24,WNW,303,7.0,15.0,74,0.00,,,0.00,,2015-03-04 19:43:00,
2015-03-04 13:53:00,17.0,10.0,30.23,NNW,333,9.0,14.0,73,0.00,,,0.00,,2015-03-04 19:53:00,